When you browse on this site, cookies collect data to enhance your experience and personalize the content and advertising you see.
Visit our Privacy Policy to learn more. By continuing to use the site, you agree to this use of cookies and data.
  • en Suisse
  • Liste des pays
  • À 7 jours
  • Température de l'eau
  • Carte satellitaire
  • Carte météo
  • Widgets météo
  • user-avatar
    Se connecter

    Météo par heure à Megri

    Ce jour, 26 Juin, Mercredi

    Heure Température Précipitation Vent Pression Humidité
    00:00 +20°C° 0 mm 3 m/s 625 mmHg 51%
    01:00 +20°C° 0 mm 3 m/s 624 mmHg 52%
    02:00 +19°C° 0 mm 2 m/s 624 mmHg 53%
    03:00 +19°C° 0 mm 2 m/s 624 mmHg 55%
    04:00 +20°C° 0 mm 2 m/s 625 mmHg 53%
    05:00 +20°C° 0 mm 2 m/s 625 mmHg 51%
    06:00 +21°C° 0 mm 2 m/s 626 mmHg 48%
    07:00 +23°C° 0 mm 2 m/s 626 mmHg 43%
    08:00 +25°C° 0 mm 3 m/s 626 mmHg 38%
    09:00 +26°C° 0 mm 3 m/s 627 mmHg 32%
    10:00 +27°C° 0 mm 3 m/s 627 mmHg 31%
    11:00 +28°C° 0 mm 4 m/s 627 mmHg 30%
    12:00 +29°C° 0 mm 4 m/s 628 mmHg 29%
    13:00 +29°C° 0 mm 4 m/s 627 mmHg 30%
    14:00 +29°C° 0 mm 4 m/s 627 mmHg 30%
    15:00 +30°C° 0 mm 5 m/s 626 mmHg 31%
    16:00 +29°C° 0 mm 5 m/s 626 mmHg 32%
    17:00 +28°C° 0 mm 4 m/s 626 mmHg 33%
    18:00 +27°C° 0 mm 4 m/s 625 mmHg 35%
    19:00 +25°C° 0 mm 4 m/s 625 mmHg 38%
    20:00 +24°C° 0 mm 3 m/s 625 mmHg 42%
    21:00 +21°C° 0 mm 3 m/s 625 mmHg 45%
    22:00 +21°C° 0 mm 3 m/s 624 mmHg 47%
    23:00 +20°C° 0 mm 2 m/s 624 mmHg 49%

    Demain, 27 Juin, Jeudi

    Heure Température Précipitation Vent Pression Humidité
    00:00 +19°C° 0 mm 2 m/s 624 mmHg 50%
    01:00 +19°C° 0 mm 2 m/s 623 mmHg 51%
    02:00 +19°C° 0 mm 2 m/s 623 mmHg 52%
    03:00 +18°C° 0 mm 2 m/s 623 mmHg 53%
    04:00 +19°C° 0 mm 2 m/s 623 mmHg 51%
    05:00 +19°C° 0 mm 2 m/s 623 mmHg 50%
    06:00 +20°C° 0 mm 2 m/s 624 mmHg 49%
    07:00 +21°C° 0 mm 2 m/s 624 mmHg 44%
    08:00 +23°C° 0 mm 2 m/s 624 mmHg 40%
    09:00 +25°C° 0 mm 3 m/s 625 mmHg 36%
    10:00 +26°C° 0 mm 3 m/s 625 mmHg 35%
    11:00 +27°C° 0 mm 3 m/s 624 mmHg 34%
    12:00 +28°C° 0 mm 3 m/s 624 mmHg 34%
    13:00 +28°C° 0 mm 3 m/s 624 mmHg 34%
    14:00 +28°C° 0 mm 4 m/s 624 mmHg 34%
    15:00 +29°C° 0 mm 4 m/s 623 mmHg 35%
    16:00 +28°C° 0 mm 4 m/s 623 mmHg 39%
    17:00 +27°C° 0 mm 4 m/s 622 mmHg 43%
    18:00 +25°C° 0 mm 4 m/s 622 mmHg 47%
    19:00 +23°C° 0.1 mm 4 m/s 621 mmHg 52%
    20:00 +22°C° 0.1 mm 4 m/s 621 mmHg 57%
    21:00 +20°C° 0.1 mm 4 m/s 621 mmHg 62%
    22:00 +20°C° 0.1 mm 3 m/s 621 mmHg 64%
    23:00 +19°C° 0.1 mm 3 m/s 620 mmHg 66%

    Après-demain, 28 Juin, Vendredi

    Heure Température Précipitation Vent Pression Humidité
    00:00 +18°C° 0.1 mm 2 m/s 620 mmHg 69%
    01:00 +18°C° 0.2 mm 2 m/s 620 mmHg 71%
    02:00 +17°C° 0.2 mm 2 m/s 619 mmHg 72%
    03:00 +17°C° 0.2 mm 2 m/s 619 mmHg 74%
    04:00 +18°C° 0.1 mm 2 m/s 619 mmHg 72%
    05:00 +18°C° 0.1 mm 2 m/s 619 mmHg 69%
    06:00 +19°C° 0.1 mm 2 m/s 619 mmHg 67%
    07:00 +20°C° 0 mm 2 m/s 620 mmHg 60%
    08:00 +23°C° 0 mm 2 m/s 620 mmHg 54%
    09:00 +25°C° 0 mm 2 m/s 620 mmHg 48%
    10:00 +26°C° 0 mm 2 m/s 620 mmHg 44%
    11:00 +27°C° 0 mm 2 m/s 620 mmHg 40%
    12:00 +29°C° 0 mm 2 m/s 620 mmHg 36%
    13:00 +29°C° 0.1 mm 3 m/s 620 mmHg 34%
    14:00 +29°C° 0.1 mm 3 m/s 619 mmHg 32%
    15:00 +30°C° 0.1 mm 3 m/s 619 mmHg 31%
    16:00 +29°C° 0 mm 3 m/s 619 mmHg 35%
    17:00 +28°C° 0 mm 4 m/s 618 mmHg 39%
    18:00 +27°C° 0 mm 4 m/s 618 mmHg 43%
    19:00 +25°C° 0.1 mm 3 m/s 618 mmHg 51%
    20:00 +22°C° 0.1 mm 3 m/s 618 mmHg 59%
    21:00 +20°C° 0.1 mm 3 m/s 618 mmHg 68%
    22:00 +19°C° 0 mm 3 m/s 618 mmHg 70%
    23:00 +18°C° 0 mm 2 m/s 617 mmHg 72%

    29 Juin, Samedi

    Heure Température Précipitation Vent Pression Humidité
    00:00 +19°C° 0 mm 1 m/s 617 mmHg 75%
    01:00 +19°C° 0 mm 1 m/s 617 mmHg 74%
    02:00 +18°C° 0 mm 1 m/s 617 mmHg 74%
    03:00 +18°C° 0 mm 1 m/s 617 mmHg 74%
    04:00 +17°C° 0 mm 0 m/s 617 mmHg 70%
    05:00 +18°C° 0 mm 0 m/s 617 mmHg 65%
    06:00 +19°C° 0 mm 0 m/s 618 mmHg 61%
    07:00 +22°C° 0 mm 1 m/s 618 mmHg 56%
    08:00 +24°C° 0 mm 1 m/s 619 mmHg 50%
    09:00 +25°C° 0 mm 1 m/s 619 mmHg 44%
    10:00 +27°C° 0 mm 2 m/s 619 mmHg 39%
    11:00 +28°C° 0 mm 3 m/s 620 mmHg 34%
    12:00 +29°C° 0 mm 4 m/s 620 mmHg 28%
    13:00 +30°C° 0 mm 4 m/s 619 mmHg 26%
    14:00 +30°C° 0 mm 5 m/s 619 mmHg 23%
    15:00 +32°C° 0 mm 5 m/s 619 mmHg 20%
    16:00 +30°C° 0 mm 4 m/s 619 mmHg 23%
    17:00 +29°C° 0 mm 4 m/s 619 mmHg 26%
    18:00 +29°C° 0 mm 3 m/s 618 mmHg 29%
    19:00 +27°C° 0 mm 3 m/s 618 mmHg 35%
    20:00 +25°C° 0 mm 2 m/s 618 mmHg 42%
    21:00 +23°C° 0 mm 2 m/s 619 mmHg 48%
    22:00 +21°C° 0 mm 2 m/s 618 mmHg 52%
    23:00 +20°C° 0 mm 2 m/s 618 mmHg 55%

    30 Juin, Dimanche

    Heure Température Précipitation Vent Pression Humidité
    00:00 +21°C° 0 mm 1 m/s 618 mmHg 59%
    01:00 +19°C° 0 mm 2 m/s 618 mmHg 65%
    02:00 +18°C° 0 mm 2 m/s 618 mmHg 72%
    03:00 +17°C° 0 mm 2 m/s 618 mmHg 78%
    04:00 +17°C° 0 mm 2 m/s 618 mmHg 79%
    05:00 +17°C° 0 mm 2 m/s 618 mmHg 79%
    06:00 +17°C° 0 mm 2 m/s 618 mmHg 79%
    07:00 +20°C° 0 mm 1 m/s 618 mmHg 71%
    08:00 +21°C° 0 mm 1 m/s 619 mmHg 62%
    09:00 +23°C° 0 mm 1 m/s 620 mmHg 53%
    10:00 +24°C° 0 mm 2 m/s 620 mmHg 47%
    11:00 +26°C° 0 mm 2 m/s 620 mmHg 41%
    12:00 +27°C° 0 mm 3 m/s 620 mmHg 34%
    13:00 +28°C° 0 mm 3 m/s 620 mmHg 32%
    14:00 +28°C° 0 mm 3 m/s 620 mmHg 30%
    15:00 +29°C° 0 mm 3 m/s 620 mmHg 28%
    16:00 +28°C° 0 mm 3 m/s 620 mmHg 31%
    17:00 +28°C° 0 mm 3 m/s 619 mmHg 34%
    18:00 +27°C° 0 mm 3 m/s 619 mmHg 37%
    19:00 +25°C° 0 mm 3 m/s 619 mmHg 48%
    20:00 +22°C° 0 mm 3 m/s 619 mmHg 60%
    21:00 +19°C° 0 mm 3 m/s 618 mmHg 71%
    22:00 +19°C° 0 mm 3 m/s 618 mmHg 75%
    23:00 +18°C° 0 mm 3 m/s 618 mmHg 79%

    1 Juillet, Lundi

    Heure Température Précipitation Vent Pression Humidité
    00:00 +18°C° 0 mm 3 m/s 618 mmHg 83%
    01:00 +18°C° 0 mm 3 m/s 618 mmHg 84%
    02:00 +17°C° 0 mm 3 m/s 618 mmHg 86%
    03:00 +17°C° 0 mm 3 m/s 618 mmHg 88%
    04:00 +17°C° 0 mm 3 m/s 618 mmHg 87%
    05:00 +17°C° 0 mm 3 m/s 619 mmHg 86%
    06:00 +17°C° 0 mm 3 m/s 619 mmHg 84%
    07:00 +18°C° 0 mm 3 m/s 619 mmHg 76%
    08:00 +19°C° 0 mm 2 m/s 620 mmHg 67%
    09:00 +21°C° 0 mm 2 m/s 620 mmHg 58%
    10:00 +22°C° 0 mm 3 m/s 620 mmHg 49%
    11:00 +25°C° 0 mm 3 m/s 621 mmHg 41%
    12:00 +26°C° 0 mm 4 m/s 621 mmHg 33%
    13:00 +26°C° 0 mm 4 m/s 621 mmHg 33%
    14:00 +26°C° 0 mm 4 m/s 620 mmHg 32%
    15:00 +26°C° 0 mm 4 m/s 620 mmHg 32%
    16:00 +25°C° 0 mm 4 m/s 620 mmHg 39%
    17:00 +22°C° 0 mm 4 m/s 619 mmHg 45%
    18:00 +21°C° 0 mm 4 m/s 619 mmHg 52%
    19:00 +19°C° 0 mm 4 m/s 619 mmHg 61%
    20:00 +17°C° 0 mm 3 m/s 619 mmHg 69%
    21:00 +14°C° 0 mm 3 m/s 619 mmHg 78%
    22:00 +14°C° 0 mm 3 m/s 619 mmHg 79%
    23:00 +13°C° 0 mm 3 m/s 619 mmHg 80%
    Voir plus